Ballenas Island, British Columbia

5:42 AM PDT on March 24, 2017 (GMT -0700)
Ballenas Island

Weather History for CWGB - July, 2013

Change the Weather History Date:

Monday, July 1, 2013

  Actual Average Record
Temperature  
Mean Temperature 70 °F -  
Max Temperature 75 °F - - ()
Min Temperature 65 °F - - ()
Cooling Degree Days 5    
Growing Degree Days 20 (Base 50)    
Moisture  
Dew Point 63 °F    
Average Humidity 79    
Maximum Humidity 88    
Minimum Humidity 65    
Precipitation  
Precipitation 0.00 in - - ()
Sea Level Pressure  
Sea Level Pressure 29.91 in    
Wind  
Wind Speed 8 mph ()    
Max Wind Speed 16 mph    
Max Gust Speed -    
T = Trace of Precipitation, MM = Missing Value Source: Averaged Metar Reports

Daily Weather History Graph

Daily Weather History Graph

Search for Another Location

Airport or City:

Trip Planner

Search our weather history database for the weather conditions in past years. The results will help you decide how hot, cold, wet, or windy it might be!

Date:

Astronomy

Jul. 01, 2013 Rise Set
Actual Time 5:15 AM PDT 9:25 PM PDT
Civil Twilight 4:32 AM PDT 10:08 PM PDT
Nautical Twilight 3:30 AM PDT 11:09 PM PDT
Astronomical Twilight 1:52 AM PDT 12:48 AM PDT
Moon 1:09 AM PDT (7/1) 3:28 PM PDT (7/1)
Length of Visible Light 17h 36m
Length of Day
16h 10m
Waning Crescent, 34% of the Moon is Illuminated
Jul 1
Waning Crescent
Jul 8
New
Jul 15
First Quarter
Jul 22
Full
Jul 29
Last Quarter

Hourly Weather History & Observations

Time (PDT) Temp. Dew Point Humidity Pressure Visibility Wind Dir Wind Speed Gust Speed Precip Events Conditions
12:00 AM 70.2 °F 64.4 °F 82% 29.85 in - West 3.5 mph - N/A   Unknown
1:00 AM 70.5 °F 62.1 °F 74% 29.87 in - WSW 8.1 mph - N/A   Unknown
2:00 AM 68.7 °F 63.7 °F 84% 29.88 in - West 4.6 mph - N/A   Unknown
3:00 AM 67.8 °F 62.6 °F 83% 29.90 in - WSW 8.1 mph - N/A   Unknown
4:00 AM 68.4 °F 62.8 °F 82% 29.91 in - West 11.5 mph - N/A   Unknown
5:00 AM 67 °F 62 °F 78% 29.92 in - West 15.0 mph - -  
5:00 AM 67.3 °F 61.7 °F 82% 29.92 in - West 15.0 mph - N/A   Unknown
6:00 AM 66.7 °F 61.5 °F 83% 29.93 in - WNW 16.1 mph - N/A   Unknown
7:00 AM 66.7 °F 61.2 °F 82% 29.94 in - WNW 13.8 mph - N/A   Unknown
8:00 AM 66.6 °F 61.2 °F 83% 29.94 in - WNW 12.7 mph - N/A   Unknown
9:00 AM 66.4 °F 60.4 °F 81% 29.94 in - West 13.8 mph - N/A   Unknown
10:00 AM 65.8 °F 60.8 °F 84% 29.94 in - West 9.2 mph - N/A   Unknown
11:00 AM 65 °F 61 °F 81% 29.93 in - West 11.5 mph - -  
11:00 AM 65.5 °F 60.6 °F 84% 29.93 in - West 11.5 mph - N/A   Unknown
12:00 PM 67.6 °F 61.5 °F 81% 29.91 in - West 9.2 mph - N/A   Unknown
1:00 PM 68.5 °F 62.2 °F 80% 29.91 in - West 8.1 mph - N/A   Unknown
2:00 PM 69.8 °F 61.5 °F 75% 29.90 in - WSW 5.8 mph - N/A   Unknown
3:00 PM 70.5 °F 62.2 °F 75% 29.89 in - WSW 4.6 mph - N/A   Unknown
4:00 PM 71.4 °F 63.0 °F 75% 29.88 in - West 4.6 mph - N/A   Unknown
5:00 PM 73 °F 64 °F 65% 29.88 in - West 4.6 mph - -  
5:00 PM 72.9 °F 63.7 °F 73% 29.88 in - West 4.6 mph - N/A   Unknown
6:00 PM 75.7 °F 63.3 °F 65% 29.87 in - NNE 2.3 mph - N/A   Unknown
7:00 PM 73.9 °F 65.1 °F 74% 29.87 in - ESE 8.1 mph - N/A   Unknown
8:00 PM 71.8 °F 65.1 °F 79% 29.88 in - ESE 10.4 mph - N/A   Unknown
9:00 PM 70.3 °F 64.8 °F 82% 29.89 in - ESE 9.2 mph - N/A   Unknown
10:00 PM 69.6 °F 64.6 °F 84% 29.91 in - East 1.2 mph - N/A   Unknown
11:00 PM 69 °F 65 °F 84% 29.95 in - NE 5.8 mph - -  
11:00 PM 68.9 °F 65.1 °F 88% 29.95 in - NE 5.8 mph - N/A   Unknown